Flag for Poland Weather past 2 weeks in Płock, Poland

Now
72 °F

Scattered clouds.


Feels Like: 77 °F
Forecast: 54 / 72 °F
Wind: 6 mph from Southeast

Location: Plock

Current Time: Sep 18, 2014 at 8:36:33 PM

Latest Report: Sep 18, 2014 at 5:00 PM


Visibility: 19 mi

Pressure: 30.10 "Hg

Humidity: 43%

Dew point: 48 °F

Location of PłockLocation

Historic Weather in Płock — Graph

°F

Płock temperature yesterday

Maximum temperature yesterday: 69 °F (at 4:00 PM)
Minimum temperature yesterday: 48 °F (at 6:00 AM)
Average temperature yesterday: 58 °F

Past Weeks' High & Low Weather Summary

 TemperatureHumidityPressure
High79 °F (Sep 13, 3:00 PM)99% (Sep 9, 2:00 AM)30.33 "Hg (Sep 9, 2:00 AM)
Low48 °F (Sep 6, 6:00 AM)37% (Sep 16, 4:00 PM)29.94 "Hg (Sep 7, 4:00 PM)
Average62 °F73%30.10 "Hg
* Reported Sep 3 5:00 PM — Sep 18 5:00 PM, Płock, Weather by CustomWeather, © 2014

Note: Actual official high and low records may vary slightly from our data, if they occured in-between our weather recording intervals... More about our weather records

Advertising

Płock weather history for previous 24 hours

 ConditionsComfort  
Time TempWeatherWind HumidityBarometerVisibility
5:00 PM
Sep 18
72 °FScattered clouds.6 mph43%30.10 "Hg19 mi
4:00 PM72 °FPassing clouds.6 mph43%30.10 "Hg19 mi
3:00 PM72 °FPassing clouds.5 mph45%30.10 "Hg14 mi
2:00 PM71 °FPassing clouds.6 mph46%30.11 "Hg14 mi
1:00 PM70 °FPassing clouds.6 mph46%30.13 "Hg15 mi
12:00 PM67 °FPassing clouds.7 mph48%30.14 "Hg12 mi
11:00 AM65 °FSunny.6 mph51%30.15 "Hg11 mi
10:00 AM61 °FSunny.5 mph62%30.16 "Hg11 mi
9:00 AM56 °FSunny.5 mph71%30.17 "Hg9 mi
8:00 AM53 °FPassing clouds.3 mph79%30.17 "Hg7 mi
7:00 AM49 °FSunny.3 mph84%30.17 "Hg7 mi
6:00 AM49 °FClear.2 mph83%30.16 "Hg7 mi
5:00 AM50 °FPassing clouds.3 mph82%30.17 "Hg7 mi
4:00 AM51 °FPassing clouds.3 mph82%30.17 "Hg9 mi
3:00 AM51 °FPassing clouds.2 mph79%30.18 "Hg9 mi
2:00 AM53 °FPassing clouds.3 mph76%30.18 "Hg12 mi
1:00 AM53 °FPassing clouds.3 mph75%30.18 "Hg12 mi
12:00 AM55 °FPassing clouds.3 mph71%30.18 "Hg12 mi
11:00 PM
Sep 17
56 °FPassing clouds.3 mph69%30.19 "Hg12 mi
10:00 PM55 °FPassing clouds.2 mph71%30.19 "Hg12 mi
9:00 PM57 °FPassing clouds.3 mph67%30.19 "Hg12 mi
8:00 PM58 °FPassing clouds.2 mph65%30.18 "Hg12 mi
Weather by CustomWeather, © 2014

See weather overviewHow to use our weather pages